Calgary / Springba, Alberta

4:57 AM MST on February 25, 2017 (GMT -0700)
Springbank

Weather History for CYBW - February, 2013

Change the Weather History Date:

Wednesday, February 20, 2013

  Actual Average Record
Temperature  
Mean Temperature 20 °F -  
Max Temperature 27 °F 32 °F 48 °F (1998)
Min Temperature 14 °F 11 °F -9 °F (2011)
Degree Days  
Heating Degree Days 44    
Moisture  
Dew Point 16 °F    
Average Humidity 88    
Maximum Humidity 93    
Minimum Humidity 74    
Precipitation  
Precipitation 0.02 in - - ()
Sea Level Pressure  
Sea Level Pressure 29.96 in    
Wind  
Wind Speed 4 mph ()    
Max Wind Speed 10 mph    
Max Gust Speed -    
Visibility 5.5 miles    
Events Fog , Snow    
Averages and records for this station are not official NWS values.
T = Trace of Precipitation, MM = Missing Value Source: Averaged Metar Reports

Daily Weather History Graph

Daily Weather History Graph

Search for Another Location

Airport or City:

Trip Planner

Search our weather history database for the weather conditions in past years. The results will help you decide how hot, cold, wet, or windy it might be!

Date:

Astronomy

Feb. 20, 2013 Rise Set
Actual Time 7:39 AM MST 6:03 PM MST
Civil Twilight 7:06 AM MST 6:37 PM MST
Nautical Twilight 6:27 AM MST 7:15 PM MST
Astronomical Twilight 5:49 AM MST 7:53 PM MST
Moon 1:07 PM MST (2/20) 4:24 AM MST (2/20)
Length of Visible Light 11h 30m
Length of Day
10h 23m
Waxing Gibbous, 76% of the Moon is Illuminated
Feb 20
Waxing Gibbous
Feb 25
Full
Mar 4
Last Quarter
Mar 11
New
Mar 19
First Quarter

Hourly Weather History & Observations

Time (MST) Temp. Windchill Dew Point Humidity Pressure Visibility Wind Dir Wind Speed Gust Speed Precip Events Conditions
5:00 AM 18 °F - 17 °F 92% 29.98 in 3 mi Calm Calm - - Snow Light Snow
5:00 AM 17.6 °F - 15.8 °F 93% 29.98 in 3.0 mi Calm Calm - N/A Snow Light Snow
6:00 AM 17.6 °F - 15.8 °F 93% 29.99 in 8.0 mi East 2.3 mph - N/A Snow Light Snow
7:00 AM 17.6 °F - 15.8 °F 93% 29.99 in 5.0 mi Calm Calm - N/A Snow Light Snow
8:00 AM 15.8 °F 10.2 °F 14.0 °F 93% 29.99 in 2.5 mi SSE 3.5 mph - N/A Snow Light Snow
9:00 AM 15.8 °F 8.6 °F 14.0 °F 93% 30.00 in 2.5 mi SSE 4.6 mph - N/A Snow Light Snow
9:15 AM 15.8 °F 7.2 °F 14.0 °F 93% 29.99 in 3.0 mi SSE 5.8 mph - N/A Snow Light Snow
10:00 AM 15.8 °F 6.1 °F 14.0 °F 93% 29.99 in 4.0 mi SSE 6.9 mph - N/A Snow Light Snow
11:00 AM 20 °F - 18 °F 86% 29.97 in 6 mi SSE 6.9 mph - - Snow Light Snow
11:00 AM 19.4 °F 9.5 °F 17.6 °F 93% 29.97 in 6.0 mi SSE 8.1 mph - N/A   Scattered Clouds
12:00 PM 23.0 °F 14.7 °F 19.4 °F 86% 29.96 in 6.0 mi SSE 6.9 mph - N/A   Mostly Cloudy
1:00 PM 24.8 °F 16.1 °F 19.4 °F 80% 29.94 in 6.0 mi SSE 8.1 mph - N/A   Mostly Cloudy
2:00 PM 24.8 °F 14.6 °F 17.6 °F 74% 29.93 in 6.0 mi SE 10.4 mph - N/A   Mostly Cloudy
3:00 PM 24.8 °F 15.3 °F 17.6 °F 74% 29.92 in 6.0 mi SSE 9.2 mph - N/A   Mostly Cloudy
4:00 PM 24.8 °F 16.1 °F 19.4 °F 80% 29.92 in 8.0 mi SE 8.1 mph - N/A   Mostly Cloudy
5:00 PM 22 °F - 18 °F 77% 29.94 in 7 mi SE 10.4 mph - -   Scattered Clouds
5:00 PM 23.0 °F 12.4 °F 17.6 °F 80% 29.93 in 7.0 mi SE 10.4 mph - N/A   Scattered Clouds
6:00 PM 19.4 °F 8.6 °F 15.8 °F 86% 29.95 in 25.0 mi ESE 9.2 mph - N/A   Partly Cloudy
7:00 PM 17.6 °F 6.4 °F 15.8 °F 93% 29.96 in 15.0 mi SE 9.2 mph - N/A   Clear
8:00 PM 15.8 °F 6.1 °F 14.0 °F 93% 29.98 in 15.0 mi SE 6.9 mph - N/A   Clear
8:36 PM 15.8 °F 7.2 °F 14.0 °F 93% 29.98 in 0.8 mi SE 5.8 mph - N/A   Clear
9:00 PM 15.8 °F 8.6 °F 14.0 °F 93% 29.98 in 0.1 mi SSE 4.6 mph - N/A Fog Light Freezing Fog
10:00 PM 14.0 °F 6.5 °F 12.2 °F 93% 29.76 in 0.0 mi South 4.6 mph - N/A Fog Light Freezing Fog